M I D A S
Marine Information and Data Acquisition System
Tripno 2186 of the Zeeleeuw from 2011-09-20 07:02:04 to 2011-09-20 14:33:28
Back to CruiseResearch ActivitiesStationsMapUnderway DataData graphs

EquipmentUnitsComments
TimeDGPSUTC
LatitudeDGPSDM.mWGS84
LongitudeDGPSDM.mWGS84
SpeedMeteo Stationm/sRelative wind speed
DirectionMeteo StationdegRelative wind direction
TemperatureMeteo Stationdeg CelciusAir temperature
PressureMeteo StationPaAtmospheric pressure
HumidityMeteo Station%Relative humidity
Missing or incorrect values are displayed as -999
Metereological data collected by the RV Zeeleeuw from 2011-09-20 07:08:50 to 2011-09-20 15:36:53
                                                                                    Next 1000 lines
Time Latitude Longitude Speed Direction Temperature Pressure Humidity
2011-09-20 07:08:59 51°13.635 2°56.015 2.3 32 15.2 101990 43
2011-09-20 07:09:04 51°13.636 2°56.012 2.3 28 15.2 101990 43
2011-09-20 07:09:09 51°13.637 2°56.008 3.9 40 15.2 101990 41
2011-09-20 07:09:14 51°13.638 2°56.004 4.3 31 15.2 101990 41
2011-09-20 07:09:20 51°13.64 2°55.997 3.5 26 15.2 101990 42
2011-09-20 07:09:26 51°13.642 2°55.99 4.4 39 15.2 101990 42
2011-09-20 07:09:31 51°13.644 2°55.983 5.3 39 15.2 101990 42
2011-09-20 07:09:37 51°13.647 2°55.974 4.4 40 15.2 101990 42
2011-09-20 07:09:42 51°13.649 2°55.966 5 38 15.2 101990 42
2011-09-20 07:09:48 51°13.651 2°55.956 6 34 15.2 101990 42
2011-09-20 07:09:53 51°13.653 2°55.947 6 30 15.2 101990 42
2011-09-20 07:09:58 51°13.656 2°55.938 4.4 35 15.2 101990 42
2011-09-20 07:10:02 51°13.657 2°55.931 4.3 38 15.2 101990 43
2011-09-20 07:10:08 51°13.66 2°55.92 4.8 36 15.2 101990 43
2011-09-20 07:10:13 51°13.662 2°55.911 2.6 36 15.2 101980 42
2011-09-20 07:10:18 51°13.664 2°55.902 5 31 15.2 101980 42
2011-09-20 07:10:23 51°13.667 2°55.893 4.7 35 15.2 101980 43
2011-09-20 07:10:28 51°13.669 2°55.884 4.7 39 15.2 101980 43
2011-09-20 07:10:33 51°13.671 2°55.874 3.9 31 15.2 101990 43
2011-09-20 07:10:38 51°13.673 2°55.865 3.8 28 15.2 101990 43
2011-09-20 07:10:42 51°13.675 2°55.858 2.6 37 15.2 101990 42
2011-09-20 07:10:48 51°13.677 2°55.847 2.8 58 15.2 101990 42
2011-09-20 07:10:53 51°13.679 2°55.838 2.7 42 15.2 101980 43
2011-09-20 07:10:58 51°13.681 2°55.83 2.6 41 15.2 101980 43
2011-09-20 07:11:02 51°13.682 2°55.823 3.7 21 15.2 101990 42
2011-09-20 07:11:08 51°13.684 2°55.813 4 41 15.2 101990 42
2011-09-20 07:11:13 51°13.686 2°55.804 3.4 40 15.2 101990 41
2011-09-20 07:11:18 51°13.687 2°55.796 3.4 32 15.2 101990 41
2011-09-20 07:11:22 51°13.688 2°55.789 3.1 38 15.2 101980 42
2011-09-20 07:11:28 51°13.69 2°55.779 2.4 39 15.2 101980 42
2011-09-20 07:11:33 51°13.691 2°55.771 3 31 15.2 101990 43
2011-09-20 07:11:38 51°13.691 2°55.763 2 32 15.2 101990 43
2011-09-20 07:11:42 51°13.692 2°55.757 2.1 41 15.2 101990 43
2011-09-20 07:11:48 51°13.693 2°55.749 3 44 15.2 101990 43
2011-09-20 07:11:53 51°13.693 2°55.744 2.6 44 15.2 101980 43
2011-09-20 07:11:58 51°13.693 2°55.741 2 30 15.2 101980 43
2011-09-20 07:12:02 51°13.694 2°55.739 1.9 30 15.2 101990 44
2011-09-20 07:12:07 51°13.694 2°55.737 1.4 39 15.2 101990 44
2011-09-20 07:12:12 51°13.694 2°55.736 1.9 44 15.3 101990 42
2011-09-20 07:12:18 51°13.695 2°55.735 0.9 38 15.3 101990 42
2011-09-20 07:12:22 51°13.695 2°55.735 2.7 23 15.3 101990 44
2011-09-20 07:12:26 51°13.695 2°55.735 1.3 50 15.3 101990 44
2011-09-20 07:12:31 51°13.696 2°55.735 0.5 36 15.3 101980 44
2011-09-20 07:12:36 51°13.697 2°55.735 1.7 52 15.3 101980 44
2011-09-20 07:12:41 51°13.698 2°55.736 0.8 22 15.3 101990 43
2011-09-20 07:12:46 51°13.699 2°55.737 0.6 58 15.3 101990 43
2011-09-20 07:12:50 51°13.7 2°55.737 1.8 22 15.3 101990 44
2011-09-20 07:12:55 51°13.701 2°55.738 0.3 52 15.3 101990 44
2011-09-20 07:13:00 51°13.703 2°55.739 0.4 21 15.3 101990 43
2011-09-20 07:13:05 51°13.705 2°55.74 0.9 51 15.3 101990 43
2011-09-20 07:13:10 51°13.707 2°55.741 0.3 29 15.3 101990 42
2011-09-20 07:13:14 51°13.709 2°55.741 0.1 60 15.3 101990 42
2011-09-20 07:13:19 51°13.711 2°55.742 2 21 15.3 101990 44
2011-09-20 07:13:25 51°13.714 2°55.742 1.4 58 15.3 101990 44
2011-09-20 07:13:30 51°13.718 2°55.742 1.7 263 15.3 101990 42
2011-09-20 07:13:34 51°13.72 2°55.741 2 56 15.3 101990 42
2011-09-20 07:13:39 51°13.724 2°55.74 1 249 15.3 101990 41
2011-09-20 07:13:44 51°13.728 2°55.738 1.4 304 15.3 101990 41
2011-09-20 07:13:50 51°13.734 2°55.734 3 253 15.3 101990 40
2011-09-20 07:13:55 51°13.738 2°55.729 4.2 307 15.3 101990 40
2011-09-20 07:14:01 51°13.744 2°55.723 3.1 257 15.3 101990 41
2011-09-20 07:14:06 51°13.75 2°55.718 3.2 303 15.3 101990 41
2011-09-20 07:14:11 51°13.757 2°55.711 2.8 251 15.3 101990 43
2011-09-20 07:14:17 51°13.765 2°55.702 3.2 308 15.3 101990 43
2011-09-20 07:14:22 51°13.772 2°55.695 1.8 28 15.3 101990 43
2011-09-20 07:14:27 51°13.78 2°55.686 2.9 309 15.3 101990 43
2011-09-20 07:14:32 51°13.789 2°55.678 2.2 23 15.3 101990 43
2011-09-20 07:14:38 51°13.799 2°55.668 3.1 306 15.3 101990 43
2011-09-20 07:14:42 51°13.807 2°55.661 2.2 26 15.3 101990 42
2011-09-20 07:14:48 51°13.818 2°55.65 3.6 309 15.3 101990 42
2011-09-20 07:14:53 51°13.828 2°55.642 2.2 22 15.4 101990 42
2011-09-20 07:14:58 51°13.839 2°55.634 2.5 310 15.4 101990 42
2011-09-20 07:15:03 51°13.849 2°55.625 3 24 15.4 101990 44
2011-09-20 07:15:08 51°13.86 2°55.617 4.4 307 15.4 101990 44
2011-09-20 07:15:13 51°13.872 2°55.608 4.1 27 15.4 101990 42
2011-09-20 07:15:18 51°13.884 2°55.599 1.8 301 15.4 101990 42
2011-09-20 07:15:22 51°13.893 2°55.593 3 28 15.4 101990 43
2011-09-20 07:15:28 51°13.907 2°55.582 2.4 308 15.4 101990 43
2011-09-20 07:15:32 51°13.917 2°55.574 2.3 19 15.4 101990 43
2011-09-20 07:15:38 51°13.932 2°55.563 2.1 308 15.4 101990 43
2011-09-20 07:15:42 51°13.942 2°55.556 0.2 321 15.4 102000 42
2011-09-20 07:15:48 51°13.957 2°55.545 0.2 305 15.4 102000 42
2011-09-20 07:15:52 51°13.968 2°55.538 3.9 20 15.4 101990 42
2011-09-20 07:15:58 51°13.983 2°55.526 4.7 303 15.4 101990 42
2011-09-20 07:16:02 51°13.994 2°55.519 5.9 22 15.4 102000 42
2011-09-20 07:16:07 51°14.007 2°55.509 4 307 15.4 102000 42
2011-09-20 07:16:12 51°14.021 2°55.5 2.8 22 15.4 101990 43
2011-09-20 07:16:17 51°14.034 2°55.49 0.3 303 15.4 101990 43
2011-09-20 07:16:22 51°14.047 2°55.48 2.1 27 15.4 101990 42
2011-09-20 07:16:27 51°14.061 2°55.47 0.2 304 15.4 101990 42
2011-09-20 07:16:32 51°14.074 2°55.459 3.3 319 15.4 101990 40
2011-09-20 07:16:37 51°14.088 2°55.449 2.6 304 15.4 101990 40
2011-09-20 07:16:42 51°14.101 2°55.438 3.3 318 15.4 102000 42
2011-09-20 07:16:47 51°14.114 2°55.427 5 309 15.4 102000 42
2011-09-20 07:16:52 51°14.128 2°55.417 4.7 28 15.4 101990 43
2011-09-20 07:16:57 51°14.141 2°55.406 4 302 15.4 101990 43
2011-09-20 07:17:02 51°14.155 2°55.396 2.9 23 15.4 101990 42
2011-09-20 07:17:06 51°14.165 2°55.387 1.9 306 15.4 101990 42
2011-09-20 07:17:11 51°14.179 2°55.377 0.3 23 15.4 101990 43
2011-09-20 07:17:17 51°14.195 2°55.363 4 308 15.4 101990 43
2011-09-20 07:17:22 51°14.209 2°55.352 4.5 320 15.4 101990 42
2011-09-20 07:17:27 51°14.223 2°55.339 5.6 302 15.4 101990 42
2011-09-20 07:17:32 51°14.237 2°55.327 6.4 321 15.4 101990 42
2011-09-20 07:17:37 51°14.251 2°55.315 4.2 308 15.4 101990 42
2011-09-20 07:17:42 51°14.265 2°55.303 5.3 27 15.4 101990 43
2011-09-20 07:17:47 51°14.279 2°55.29 4.4 308 15.4 101990 43
2011-09-20 07:17:52 51°14.294 2°55.278 5.8 28 15.4 101990 42
2011-09-20 07:17:57 51°14.308 2°55.265 5.7 310 15.4 101990 42
2011-09-20 07:18:02 51°14.322 2°55.252 4.6 22 15.5 101990 42
2011-09-20 07:18:07 51°14.336 2°55.238 4.6 303 15.5 101990 42
2011-09-20 07:18:13 51°14.353 2°55.222 8.2 29 15.5 101990 43
2011-09-20 07:18:18 51°14.367 2°55.208 6.7 309 15.5 101990 43
2011-09-20 07:18:22 51°14.379 2°55.197 7.5 27 15.5 101990 43
2011-09-20 07:18:27 51°14.394 2°55.184 7 302 15.5 101990 43
2011-09-20 07:18:32 51°14.408 2°55.172 5.4 23 15.5 101990 43
2011-09-20 07:18:37 51°14.423 2°55.158 6.2 304 15.5 101990 43
2011-09-20 07:18:42 51°14.438 2°55.145 5.7 27 15.5 101990 42
2011-09-20 07:18:46 51°14.45 2°55.134 5.5 304 15.5 101990 42
2011-09-20 07:18:51 51°14.464 2°55.121 5.8 22 15.5 101990 42
2011-09-20 07:18:56 51°14.479 2°55.108 5.1 308 15.5 101990 42
2011-09-20 07:19:01 51°14.495 2°55.095 5.8 19 15.5 101990 42
2011-09-20 07:19:06 51°14.509 2°55.081 5.7 309 15.5 101990 42
2011-09-20 07:19:10 51°14.522 2°55.07 5.8 28 15.5 101990 42
2011-09-20 07:19:15 51°14.537 2°55.056 6.4 306 15.5 101990 42
2011-09-20 07:19:20 51°14.552 2°55.042 7.3 25 15.5 101990 42
2011-09-20 07:19:25 51°14.567 2°55.028 7 307 15.5 101990 42
2011-09-20 07:19:30 51°14.582 2°55.013 6.2 26 15.5 101990 42
2011-09-20 07:19:34 51°14.594 2°55.001 7.3 308 15.5 101990 42
2011-09-20 07:19:39 51°14.608 2°54.984 7.6 25 15.5 101990 43
2011-09-20 07:19:44 51°14.622 2°54.968 8.3 301 15.5 101990 43
2011-09-20 07:19:50 51°14.64 2°54.948 7.3 253 15.5 101990 43
2011-09-20 07:19:54 51°14.651 2°54.935 6.6 304 15.5 101990 43
2011-09-20 07:19:59 51°14.665 2°54.918 7.2 22 15.5 101980 42
2011-09-20 07:20:04 51°14.68 2°54.903 7.8 302 15.5 101980 42
2011-09-20 07:20:09 51°14.694 2°54.887 7.8 21 15.5 101990 42
2011-09-20 07:20:14 51°14.709 2°54.871 7.8 307 15.5 101990 42
2011-09-20 07:20:19 51°14.723 2°54.856 6.8 245 15.6 101980 42
2011-09-20 07:20:24 51°14.737 2°54.84 7.5 307 15.6 101980 42
2011-09-20 07:20:30 51°14.755 2°54.821 7.9 245 15.6 101990 42
2011-09-20 07:20:34 51°14.766 2°54.807 7.3 302 15.6 101990 42
2011-09-20 07:20:39 51°14.78 2°54.792 7.6 244 15.6 101980 42
2011-09-20 07:20:44 51°14.794 2°54.774 7 308 15.6 101980 42
2011-09-20 07:20:50 51°14.811 2°54.755 8.9 25 15.6 101980 43
2011-09-20 07:20:54 51°14.822 2°54.742 8 308 15.6 101980 43
2011-09-20 07:20:59 51°14.835 2°54.725 8.2 248 15.6 101990 42
2011-09-20 07:21:05 51°14.852 2°54.706 7.5 309 15.6 101990 42
2011-09-20 07:21:09 51°14.864 2°54.693 6.6 24 15.6 101980 43
2011-09-20 07:21:14 51°14.878 2°54.678 6 303 15.6 101980 43
2011-09-20 07:21:19 51°14.892 2°54.662 6 21 15.6 101990 43
2011-09-20 07:21:24 51°14.906 2°54.645 7.2 307 15.6 101990 43
2011-09-20 07:21:30 51°14.923 2°54.626 6.5 25 15.6 101990 43
2011-09-20 07:21:34 51°14.934 2°54.613 5.7 307 15.6 101990 43
2011-09-20 07:21:39 51°14.948 2°54.596 7.4 26 15.6 101990 42
2011-09-20 07:21:45 51°14.964 2°54.576 7.4 305 15.6 101990 42
2011-09-20 07:21:49 51°14.975 2°54.562 8.1 249 15.6 101990 41
2011-09-20 07:21:54 51°14.989 2°54.545 7.5 306 15.6 101990 41
2011-09-20 07:21:59 51°15.003 2°54.529 7.8 21 15.6 101990 42
2011-09-20 07:22:04 51°15.017 2°54.513 6.6 304 15.6 101990 42
2011-09-20 07:22:10 51°15.034 2°54.496 6.3 249 15.6 101980 42
2011-09-20 07:22:14 51°15.046 2°54.484 5.8 303 15.6 101980 42
2011-09-20 07:22:19 51°15.061 2°54.471 6.1 247 15.6 101980 42
2011-09-20 07:22:25 51°15.08 2°54.456 6.7 310 15.6 101980 42
2011-09-20 07:22:30 51°15.096 2°54.445 7.4 252 15.6 101980 42
2011-09-20 07:22:34 51°15.108 2°54.436 7.4 307 15.6 101980 42
2011-09-20 07:22:39 51°15.125 2°54.426 7.7 257 15.6 101990 42
2011-09-20 07:22:44 51°15.141 2°54.416 5.7 305 15.6 101990 42
2011-09-20 07:22:50 51°15.16 2°54.404 6.3 252 15.6 101990 42
2011-09-20 07:22:54 51°15.173 2°54.397 7.5 305 15.6 101990 42
2011-09-20 07:22:58 51°15.186 2°54.389 7.5 254 15.7 101990 43
2011-09-20 07:23:04 51°15.205 2°54.377 6.4 306 15.7 101990 43
2011-09-20 07:23:09 51°15.221 2°54.367 6.1 253 15.6 101990 42
2011-09-20 07:23:14 51°15.238 2°54.358 5.5 308 15.6 101990 42
2011-09-20 07:23:19 51°15.254 2°54.348 6.8 252 15.7 101990 42
2011-09-20 07:23:24 51°15.27 2°54.34 5.4 304 15.7 101990 42
2011-09-20 07:23:29 51°15.287 2°54.334 3.2 264 15.7 101990 43
2011-09-20 07:23:34 51°15.304 2°54.331 2 307 15.7 101990 43
2011-09-20 07:23:39 51°15.321 2°54.332 2.1 265 15.7 101990 42
2011-09-20 07:23:44 51°15.338 2°54.332 2.9 298 15.7 101990 42
2011-09-20 07:23:50 51°15.359 2°54.335 2.2 270 15.7 102000 43
2011-09-20 07:23:54 51°15.372 2°54.337 3.2 62 15.7 102000 43
2011-09-20 07:23:59 51°15.39 2°54.34 2.8 27 15.7 101990 42
2011-09-20 07:24:05 51°15.411 2°54.344 2.4 45 15.7 101990 42
2011-09-20 07:24:09 51°15.424 2°54.347 1.4 264 15.7 102000 42
2011-09-20 07:24:15 51°15.445 2°54.352 2 302 15.7 102000 42
2011-09-20 07:24:19 51°15.459 2°54.356 0.8 263 15.7 101990 43
2011-09-20 07:24:24 51°15.476 2°54.36 0.8 303 15.7 101990 43
2011-09-20 07:24:30 51°15.497 2°54.367 0.3 251 15.7 101990 41
2011-09-20 07:24:34 51°15.51 2°54.371 1.5 300 15.7 101990 41
2011-09-20 07:24:39 51°15.527 2°54.379 1 270 15.7 101990 45
2011-09-20 07:24:44 51°15.544 2°54.386 0.6 52 15.7 101990 45
2011-09-20 07:24:50 51°15.564 2°54.395 0.2 27 15.7 101990 43
2011-09-20 07:24:54 51°15.578 2°54.402 0.3 307 15.7 101990 43
2011-09-20 07:24:59 51°15.594 2°54.409 0.1 260 15.7 101990 44
2011-09-20 07:25:04 51°15.611 2°54.417 0.3 308 15.7 101990 44
2011-09-20 07:25:10 51°15.631 2°54.426 1.1 269 15.7 101990 42
2011-09-20 07:25:14 51°15.645 2°54.434 0.1 302 15.7 101990 42
2011-09-20 07:25:19 51°15.662 2°54.441 0.1 31 15.7 102000 43
2011-09-20 07:25:24 51°15.678 2°54.451 -999 310 15.7 102000 43
2011-09-20 07:25:29 51°15.695 2°54.459 0.1 268 15.7 101990 43
2011-09-20 07:25:34 51°15.711 2°54.469 0.1 306 15.7 101990 43
2011-09-20 07:25:39 51°15.728 2°54.478 0.1 266 15.8 101990 43
2011-09-20 07:25:44 51°15.744 2°54.487 -999 308 15.8 101990 43
2011-09-20 07:25:50 51°15.764 2°54.498 -999 270 15.7 101990 42
2011-09-20 07:25:54 51°15.778 2°54.505 -999 306 15.7 101990 42
2011-09-20 07:25:59 51°15.794 2°54.516 -999 335 15.7 102000 43
2011-09-20 07:26:05 51°15.814 2°54.527 0.1 57 15.7 102000 43
2011-09-20 07:26:09 51°15.827 2°54.537 0.1 269 15.7 101990 43
2011-09-20 07:26:14 51°15.843 2°54.548 0.5 315 15.7 101990 43
2011-09-20 07:26:19 51°15.86 2°54.558 0.7 270 15.8 101990 42
2011-09-20 07:26:25 51°15.88 2°54.57 0.7 303 15.8 101990 42
2011-09-20 07:26:30 51°15.896 2°54.577 2.1 261 15.8 101990 43
2011-09-20 07:26:34 51°15.91 2°54.581 3.8 302 15.8 101990 43
2011-09-20 07:26:39 51°15.927 2°54.585 2.9 261 15.8 101980 42
2011-09-20 07:26:45 51°15.948 2°54.585 4.7 303 15.8 101980 42
2011-09-20 07:26:50 51°15.965 2°54.584 5.5 258 15.8 101990 44
2011-09-20 07:26:54 51°15.978 2°54.581 4.3 310 15.8 101990 44
2011-09-20 07:26:59 51°15.995 2°54.577 5.9 256 15.8 102000 43
2011-09-20 07:27:04 51°16.012 2°54.573 5.3 308 15.8 102000 43
2011-09-20 07:27:10 51°16.032 2°54.565 6.5 256 15.8 101990 41
2011-09-20 07:27:14 51°16.045 2°54.559 5.5 303 15.8 101990 41
2011-09-20 07:27:19 51°16.062 2°54.55 6.2 252 15.8 101990 42
2011-09-20 07:27:24 51°16.078 2°54.542 7.4 281 15.8 101990 42
2011-09-20 07:27:29 51°16.095 2°54.535 5.9 261 15.8 101980 43
2011-09-20 07:27:34 51°16.112 2°54.532 3.3 308 15.8 101980 43
2011-09-20 07:27:39 51°16.129 2°54.531 3.4 263 15.8 101980 43
2011-09-20 07:27:44 51°16.146 2°54.528 4.6 307 15.8 101980 43
2011-09-20 07:27:49 51°16.163 2°54.527 5.5 255 15.8 101980 42
2011-09-20 07:27:54 51°16.179 2°54.524 5.7 303 15.8 101980 42
2011-09-20 07:27:59 51°16.195 2°54.52 5 261 15.8 101990 42
2011-09-20 07:28:04 51°16.21 2°54.516 6.8 303 15.8 101990 42
2011-09-20 07:28:10 51°16.226 2°54.511 7.6 259 15.7 101990 43
2011-09-20 07:28:14 51°16.236 2°54.507 4.9 306 15.7 101990 43
2011-09-20 07:28:19 51°16.249 2°54.501 4.9 260 15.8 101990 43
2011-09-20 07:28:25 51°16.262 2°54.495 5.6 284 15.8 101990 43
2011-09-20 07:28:29 51°16.27 2°54.49 7.7 258 15.7 101990 43
2011-09-20 07:28:34 51°16.28 2°54.484 7.9 308 15.7 101990 43
2011-09-20 07:28:39 51°16.289 2°54.478 10.5 259 15.8 101990 43
2011-09-20 07:28:44 51°16.296 2°54.472 8.2 300 15.8 101990 43
2011-09-20 07:28:50 51°16.305 2°54.465 10 257 15.8 101990 43
2011-09-20 07:28:54 51°16.31 2°54.46 7.7 301 15.8 101990 43
2011-09-20 07:28:59 51°16.315 2°54.455 8.3 255 15.8 101990 42
2011-09-20 07:29:05 51°16.321 2°54.449 6.3 302 15.8 101990 42
2011-09-20 07:29:10 51°16.325 2°54.444 8.6 258 15.8 101990 43
2011-09-20 07:29:14 51°16.328 2°54.441 7.1 306 15.8 101990 43
2011-09-20 07:29:19 51°16.332 2°54.437 8.5 254 15.8 101980 42
2011-09-20 07:29:24 51°16.335 2°54.434 8.5 286 15.8 101980 42
2011-09-20 07:29:30 51°16.338 2°54.431 8.1 255 15.8 101990 43
2011-09-20 07:29:34 51°16.339 2°54.429 7.1 309 15.8 101990 43
2011-09-20 07:29:39 51°16.341 2°54.428 6.9 255 15.8 101980 43
2011-09-20 07:29:44 51°16.343 2°54.428 7.7 307 15.8 101980 43
2011-09-20 07:29:49 51°16.344 2°54.428 6.9 255 15.8 101990 42
2011-09-20 07:29:54 51°16.345 2°54.429 9.1 303 15.8 101990 42
2011-09-20 07:29:59 51°16.346 2°54.429 7.9 254 15.8 101990 43
2011-09-20 07:30:04 51°16.347 2°54.43 10.3 309 15.8 101990 43
2011-09-20 07:30:09 51°16.348 2°54.431 9.7 253 15.8 101980 43
2011-09-20 07:30:14 51°16.349 2°54.432 8.7 302 15.8 101980 43
2011-09-20 07:30:19 51°16.35 2°54.433 10.6 258 15.8 102000 43
2011-09-20 07:30:24 51°16.351 2°54.434 8.7 306 15.8 102000 43
2011-09-20 07:30:30 51°16.352 2°54.435 7.3 262 15.8 101980 43
2011-09-20 07:30:34 51°16.353 2°54.436 6.7 301 15.8 101980 43
2011-09-20 07:30:39 51°16.354 2°54.437 7.2 262 15.8 101990 43
2011-09-20 07:30:44 51°16.355 2°54.438 6.5 308 15.8 101990 43
2011-09-20 07:30:50 51°16.357 2°54.439 6.5 261 15.8 101980 42
2011-09-20 07:30:54 51°16.358 2°54.44 6.3 308 15.8 101980 42
2011-09-20 07:30:59 51°16.359 2°54.441 7 263 15.8 101990 42
2011-09-20 07:31:05 51°16.36 2°54.443 5.6 302 15.8 101990 42
2011-09-20 07:31:09 51°16.361 2°54.444 6.6 263 15.8 101990 43
2011-09-20 07:31:14 51°16.362 2°54.445 5.5 310 15.8 101990 43
2011-09-20 07:31:19 51°16.364 2°54.446 5.6 264 15.8 101990 43
2011-09-20 07:31:24 51°16.365 2°54.448 5.3 279 15.8 101990 43
2011-09-20 07:31:30 51°16.366 2°54.449 6.7 322 15.8 101990 42
2011-09-20 07:31:34 51°16.367 2°54.45 7.1 58 15.8 101990 42
2011-09-20 07:31:39 51°16.368 2°54.452 5.9 267 15.8 101990 43
2011-09-20 07:31:44 51°16.369 2°54.453 7.5 310 15.8 101990 43
2011-09-20 07:31:50 51°16.371 2°54.455 6.8 268 15.8 102000 42
2011-09-20 07:31:54 51°16.371 2°54.456 7.1 306 15.8 102000 42
2011-09-20 07:31:59 51°16.372 2°54.457 9.3 270 15.8 102000 43
2011-09-20 07:32:04 51°16.373 2°54.458 7.4 307 15.8 102000 43
2011-09-20 07:32:09 51°16.374 2°54.459 7.1 28 15.8 102000 43
2011-09-20 07:32:14 51°16.376 2°54.461 6.9 54 15.8 102000 43
2011-09-20 07:32:19 51°16.377 2°54.462 8.1 270 15.8 102000 43
2011-09-20 07:32:24 51°16.378 2°54.464 6.5 81 15.8 102000 43
2011-09-20 07:32:29 51°16.379 2°54.465 8.3 28 15.8 102000 41
2011-09-20 07:32:34 51°16.38 2°54.466 6.9 46 15.8 102000 41
2011-09-20 07:32:39 51°16.381 2°54.468 7 24 15.8 101990 43
2011-09-20 07:32:45 51°16.383 2°54.469 5.9 53 15.8 101990 43
2011-09-20 07:32:49 51°16.384 2°54.47 7.9 23 15.8 101990 43
2011-09-20 07:32:54 51°16.385 2°54.471 2.2 56 15.8 101990 43
2011-09-20 07:32:59 51°16.386 2°54.473 7.1 20 15.8 101990 42
2011-09-20 07:33:05 51°16.387 2°54.474 8.1 55 15.8 101990 42
2011-09-20 07:33:10 51°16.388 2°54.475 9.2 25 15.8 102000 43
2011-09-20 07:33:14 51°16.389 2°54.477 8.5 53 15.8 102000 43
2011-09-20 07:33:18 51°16.39 2°54.477 7.1 25 15.8 101990 43
2011-09-20 07:33:25 51°16.392 2°54.479 7.1 75 15.8 101990 43
2011-09-20 07:33:29 51°16.392 2°54.48 8.5 26 15.8 102000 41
2011-09-20 07:33:34 51°16.394 2°54.481 7.5 52 15.8 102000 41
2011-09-20 07:33:39 51°16.395 2°54.483 7.4 25 15.8 102000 43
2011-09-20 07:33:44 51°16.396 2°54.484 7.8 49 15.8 102000 43
2011-09-20 07:33:50 51°16.397 2°54.485 8.6 270 15.8 102000 42
2011-09-20 07:33:54 51°16.398 2°54.486 6.9 306 15.8 102000 42
2011-09-20 07:33:59 51°16.399 2°54.487 7.3 330 15.8 102000 42
2011-09-20 07:34:04 51°16.401 2°54.489 7.1 57 15.8 102000 42
2011-09-20 07:34:09 51°16.402 2°54.49 7.3 268 15.8 102000 45
2011-09-20 07:34:14 51°16.403 2°54.491 5.8 63 15.8 102000 45
2011-09-20 07:34:19 51°16.404 2°54.492 6.5 29 15.8 102000 41
2011-09-20 07:34:24 51°16.405 2°54.494 7.3 78 15.8 102000 41
2011-09-20 07:34:29 51°16.406 2°54.495 5.6 266 15.8 102000 42
2011-09-20 07:34:34 51°16.407 2°54.496 7.6 57 15.8 102000 42
2011-09-20 07:34:39 51°16.409 2°54.497 8.1 26 15.8 102000 42
2011-09-20 07:34:44 51°16.41 2°54.498 6.6 309 15.8 102000 42
2011-09-20 07:34:49 51°16.411 2°54.5 5.7 270 15.8 102000 42
2011-09-20 07:34:54 51°16.412 2°54.501 6.2 304 15.8 102000 42
2011-09-20 07:34:59 51°16.413 2°54.502 5.8 268 15.8 101990 42
2011-09-20 07:35:04 51°16.415 2°54.504 6.7 55 15.8 101990 42
2011-09-20 07:35:10 51°16.416 2°54.505 8.6 270 15.8 102000 40
2011-09-20 07:35:14 51°16.417 2°54.506 4.3 309 15.8 102000 40
2011-09-20 07:35:19 51°16.418 2°54.508 4.5 265 15.8 102000 42
2011-09-20 07:35:25 51°16.419 2°54.509 8 62 15.8 102000 42
2011-09-20 07:35:29 51°16.42 2°54.51 6.1 269 15.8 102000 42
2011-09-20 07:35:34 51°16.421 2°54.511 6.3 308 15.8 102000 42
2011-09-20 07:35:39 51°16.422 2°54.512 7 268 15.8 102000 43
2011-09-20 07:35:44 51°16.423 2°54.514 6.6 310 15.8 102000 43
2011-09-20 07:35:50 51°16.425 2°54.515 5 266 15.8 102000 42
2011-09-20 07:35:54 51°16.426 2°54.516 5.6 304 15.8 102000 42
2011-09-20 07:35:59 51°16.427 2°54.517 6.9 268 15.8 102000 43
2011-09-20 07:36:04 51°16.428 2°54.518 6.6 302 15.8 102000 43
2011-09-20 07:36:10 51°16.429 2°54.519 6.2 270 15.8 102000 43
2011-09-20 07:36:14 51°16.43 2°54.52 4.1 308 15.8 102000 43
2011-09-20 07:36:19 51°16.431 2°54.521 4.7 269 15.8 101990 43
2011-09-20 07:36:24 51°16.433 2°54.522 5.3 280 15.8 101990 43
2011-09-20 07:36:29 51°16.434 2°54.522 7.3 264 15.8 102000 42
2011-09-20 07:36:34 51°16.437 2°54.522 7 307 15.8 102000 42
2011-09-20 07:36:39 51°16.44 2°54.52 9.7 262 15.8 102000 43
2011-09-20 07:36:44 51°16.443 2°54.518 7.3 302 15.8 102000 43
2011-09-20 07:36:49 51°16.446 2°54.515 9.3 260 15.8 102000 42
2011-09-20 07:36:54 51°16.451 2°54.511 8.9 309 15.8 102000 42
2011-09-20 07:36:58 51°16.454 2°54.508 8.1 259 15.8 101990 43
2011-09-20 07:37:05 51°16.46 2°54.5 8.5 303 15.8 101990 43
2011-09-20 07:37:09 51°16.464 2°54.494 7.4 256 15.8 102000 42
2011-09-20 07:37:14 51°16.47 2°54.486 7.5 307 15.8 102000 42
2011-09-20 07:37:19 51°16.475 2°54.476 7.8 246 15.8 102000 42
2011-09-20 07:37:24 51°16.482 2°54.465 7.8 280 15.8 102000 42
2011-09-20 07:37:30 51°16.49 2°54.45 8 249 15.8 102000 43
2011-09-20 07:37:34 51°16.495 2°54.44 9.3 304 15.8 102000 43
2011-09-20 07:37:39 51°16.503 2°54.425 9 25 15.8 101980 42
2011-09-20 07:37:45 51°16.512 2°54.407 8.6 304 15.8 101980 42
2011-09-20 07:37:49 51°16.518 2°54.394 8.9 26 15.8 101980 41
2011-09-20 07:37:54 51°16.526 2°54.377 7.9 308 15.8 101980 41
2011-09-20 07:37:59 51°16.535 2°54.359 10.1 25 15.8 101980 42
2011-09-20 07:38:04 51°16.543 2°54.341 9 302 15.8 101980 42
2011-09-20 07:38:10 51°16.554 2°54.319 9.4 25 15.8 101980 43
2011-09-20 07:38:14 51°16.561 2°54.303 9.6 303 15.8 101980 43
2011-09-20 07:38:19 51°16.569 2°54.283 9.2 25 15.8 101970 42
2011-09-20 07:38:24 51°16.578 2°54.263 9.2 281 15.8 101970 42
2011-09-20 07:38:30 51°16.589 2°54.238 9.4 22 15.8 101970 43
2011-09-20 07:38:34 51°16.596 2°54.222 10.2 305 15.8 101970 43
2011-09-20 07:38:39 51°16.605 2°54.201 12 27 15.8 101980 43
2011-09-20 07:38:45 51°16.616 2°54.176 9.5 307 15.8 101980 43
2011-09-20 07:38:50 51°16.625 2°54.155 12.1 25 15.8 101970 42
2011-09-20 07:38:54 51°16.632 2°54.138 10.8 305 15.8 101970 42
2011-09-20 07:38:58 51°16.639 2°54.12 12.1 19 15.8 101980 43
2011-09-20 07:39:05 51°16.652 2°54.089 9.2 309 15.8 101980 43
2011-09-20 07:39:09 51°16.659 2°54.071 11.4 24 15.8 101960 43
2011-09-20 07:39:14 51°16.668 2°54.048 9.7 305 15.8 101960 43
2011-09-20 07:39:19 51°16.676 2°54.024 8.8 27 15.8 101970 43
2011-09-20 07:39:24 51°16.685 2°54 11.1 281 15.8 101970 43
2011-09-20 07:39:30 51°16.695 2°53.973 11 27 15.8 101970 42
2011-09-20 07:39:34 51°16.701 2°53.954 10.1 309 15.8 101970 42
2011-09-20 07:39:39 51°16.709 2°53.931 10.2 26 15.8 101960 42
2011-09-20 07:39:44 51°16.717 2°53.907 12.4 302 15.8 101960 42
2011-09-20 07:39:50 51°16.728 2°53.879 12.4 20 15.8 101960 42
2011-09-20 07:39:54 51°16.734 2°53.86 11.9 308 15.8 101960 42
2011-09-20 07:39:59 51°16.743 2°53.837 4.4 25 15.8 101970 42
2011-09-20 07:40:05 51°16.754 2°53.81 11.8 309 15.8 101970 42
2011-09-20 07:40:09 51°16.761 2°53.792 10.2 20 15.8 101960 42
2011-09-20 07:40:14 51°16.77 2°53.769 9.4 304 15.8 101960 42
2011-09-20 07:40:19 51°16.779 2°53.746 11.4 19 15.8 101970 42
2011-09-20 07:40:24 51°16.787 2°53.724 11.9 280 15.8 101970 42
2011-09-20 07:40:30 51°16.798 2°53.696 11.5 28 15.8 101960 41
2011-09-20 07:40:34 51°16.804 2°53.677 10.6 308 15.8 101960 41
2011-09-20 07:40:39 51°16.813 2°53.655 10.8 20 15.8 101960 43
2011-09-20 07:40:44 51°16.822 2°53.631 11.2 302 15.8 101960 43
2011-09-20 07:40:50 51°16.832 2°53.604 10.1 27 15.8 101980 42
2011-09-20 07:40:54 51°16.839 2°53.585 12.8 308 15.8 101980 42
2011-09-20 07:40:59 51°16.847 2°53.562 12.6 23 15.8 101970 43
2011-09-20 07:41:04 51°16.856 2°53.538 11.4 308 15.8 101970 43
2011-09-20 07:41:09 51°16.864 2°53.515 10 27 15.8 101960 43
2011-09-20 07:41:14 51°16.874 2°53.492 10.9 301 15.8 101960 43
2011-09-20 07:41:19 51°16.883 2°53.47 9.9 27 15.8 101960 42
2011-09-20 07:41:24 51°16.892 2°53.447 11.3 281 15.8 101960 42
2011-09-20 07:41:29 51°16.902 2°53.425 12.7 25 15.8 101970 43
2011-09-20 07:41:34 51°16.911 2°53.403 11.6 304 15.8 101970 43
2011-09-20 07:41:39 51°16.921 2°53.381 9.8 26 15.8 101970 42
2011-09-20 07:41:44 51°16.93 2°53.359 11.1 307 15.8 101970 42
2011-09-20 07:41:50 51°16.941 2°53.332 8.6 27 15.8 101970 42
2011-09-20 07:41:54 51°16.948 2°53.313 11.6 303 15.8 101970 42
2011-09-20 07:41:59 51°16.956 2°53.291 9 25 15.7 101960 41
2011-09-20 07:42:05 51°16.966 2°53.264 13.2 306 15.7 101960 41
2011-09-20 07:42:09 51°16.973 2°53.245 9.1 26 15.8 101980 43
2011-09-20 07:42:14 51°16.981 2°53.222 4.7 306 15.8 101980 43
2011-09-20 07:42:19 51°16.989 2°53.198 9.7 25 15.8 101970 42
2011-09-20 07:42:24 51°16.997 2°53.175 11.9 279 15.8 101970 42
2011-09-20 07:42:30 51°17.007 2°53.147 12.7 25 15.8 101970 42
2011-09-20 07:42:34 51°17.013 2°53.129 14.2 305 15.8 101970 42
2011-09-20 07:42:39 51°17.022 2°53.106 11.4 26 15.8 101970 42
2011-09-20 07:42:44 51°17.031 2°53.083 10.3 306 15.8 101970 42
2011-09-20 07:42:50 51°17.042 2°53.056 10.1 25 15.8 101960 43
2011-09-20 07:42:54 51°17.05 2°53.038 11.7 303 15.8 101960 43
2011-09-20 07:42:59 51°17.059 2°53.015 10.3 22 15.8 101970 42
2011-09-20 07:43:04 51°17.068 2°52.992 14.5 304 15.8 101970 42
2011-09-20 07:43:09 51°17.077 2°52.969 13.7 23 15.8 101980 40
2011-09-20 07:43:14 51°17.085 2°52.946 10.5 302 15.8 101980 40
2011-09-20 07:43:19 51°17.094 2°52.922 11.6 27 15.8 101980 42
2011-09-20 07:43:24 51°17.102 2°52.899 14.2 308 15.8 101980 42
2011-09-20 07:43:29 51°17.111 2°52.876 13.3 19 15.8 101980 43
2011-09-20 07:43:34 51°17.119 2°52.852 12.5 305 15.8 101980 43
2011-09-20 07:43:39 51°17.127 2°52.828 11.4 23 15.8 101960 42
2011-09-20 07:43:45 51°17.137 2°52.8 10.3 308 15.8 101960 42
2011-09-20 07:43:49 51°17.144 2°52.781 11.2 23 15.8 101960 42
2011-09-20 07:43:54 51°17.153 2°52.758 9.2 306 15.8 101960 42
2011-09-20 07:43:59 51°17.162 2°52.735 11.9 24 15.8 101970 43
2011-09-20 07:44:04 51°17.171 2°52.712 12.5 306 15.8 101970 43
2011-09-20 07:44:10 51°17.183 2°52.685 10.2 25 15.8 101970 42
2011-09-20 07:44:14 51°17.19 2°52.667 10.2 307 15.8 101970 42
2011-09-20 07:44:19 51°17.199 2°52.644 9.7 28 15.8 101980 42
2011-09-20 07:44:24 51°17.208 2°52.62 9.8 278 15.8 101980 42
2011-09-20 07:44:30 51°17.218 2°52.593 11.9 23 15.8 101960 42
2011-09-20 07:44:34 51°17.226 2°52.574 13.3 306 15.8 101960 42
2011-09-20 07:44:39 51°17.235 2°52.551 8.9 21 15.8 101970 42
2011-09-20 07:44:45 51°17.246 2°52.524 11.5 305 15.8 101970 42
2011-09-20 07:44:50 51°17.255 2°52.501 11.7 28 15.8 101970 41
2011-09-20 07:44:54 51°17.262 2°52.483 10.4 303 15.8 101970 41
2011-09-20 07:44:59 51°17.272 2°52.46 10.8 22 15.8 101960 42
2011-09-20 07:45:04 51°17.282 2°52.438 10.3 309 15.8 101960 42
2011-09-20 07:45:10 51°17.294 2°52.412 13.2 20 15.8 101970 42
2011-09-20 07:45:14 51°17.302 2°52.395 8.6 301 15.8 101970 42
2011-09-20 07:45:19 51°17.312 2°52.373 9.6 26 15.8 101970 42
2011-09-20 07:45:24 51°17.323 2°52.352 10.6 303 15.8 101970 42
2011-09-20 07:45:29 51°17.333 2°52.33 8.8 22 15.8 101960 42
2011-09-20 07:45:34 51°17.344 2°52.308 8.4 304 15.8 101960 42
2011-09-20 07:45:39 51°17.355 2°52.287 11 26 15.8 101970 41
2011-09-20 07:45:44 51°17.367 2°52.267 8.7 306 15.8 101970 41
2011-09-20 07:45:49 51°17.378 2°52.247 9.7 23 15.9 101980 41
2011-09-20 07:45:54 51°17.39 2°52.228 8.9 310 15.9 101980 41
2011-09-20 07:45:59 51°17.402 2°52.209 10.8 21 15.9 101980 42
2011-09-20 07:46:04 51°17.414 2°52.19 9.4 306 15.9 101980 42
2011-09-20 07:46:09 51°17.426 2°52.17 10 21 15.9 101980 42
2011-09-20 07:46:14 51°17.438 2°52.151 8.7 309 15.9 101980 42
2011-09-20 07:46:19 51°17.45 2°52.132 7.5 21 15.9 101990 43
2011-09-20 07:46:25 51°17.465 2°52.109 8.4 282 15.9 101990 43
2011-09-20 07:46:29 51°17.474 2°52.094 10.3 23 15.9 101980 42
2011-09-20 07:46:34 51°17.487 2°52.075 10 307 15.9 101980 42
2011-09-20 07:46:39 51°17.499 2°52.057 8.7 24 15.9 101980 42
2011-09-20 07:46:44 51°17.512 2°52.038 8.5 308 15.9 101980 42
2011-09-20 07:46:50 51°17.528 2°52.017 8.8 26 15.9 101980 42
2011-09-20 07:46:54 51°17.538 2°52.002 9 302 15.9 101980 42
2011-09-20 07:46:59 51°17.551 2°51.984 10.8 244 15.9 101980 42
2011-09-20 07:47:04 51°17.565 2°51.966 10.4 304 15.9 101980 42
2011-09-20 07:47:10 51°17.58 2°51.945 9.2 246 15.9 101980 42
2011-09-20 07:47:14 51°17.591 2°51.93 11 304 15.9 101980 42
2011-09-20 07:47:19 51°17.604 2°51.912 7.7 21 15.9 101980 42
2011-09-20 07:47:24 51°17.617 2°51.894 9.8 282 15.9 101980 42
2011-09-20 07:47:29 51°17.63 2°51.875 7.5 26 15.9 101980 42
2011-09-20 07:47:34 51°17.643 2°51.857 11.6 305 15.9 101980 42
2011-09-20 07:47:39 51°17.655 2°51.839 9.7 23 15.9 101990 42
2011-09-20 07:47:44 51°17.668 2°51.819 9.9 309 15.9 101990 42
2011-09-20 07:47:49 51°17.68 2°51.8 9.2 20 15.9 101980 42
2011-09-20 07:47:54 51°17.692 2°51.781 10.6 302 15.9 101980 42
2011-09-20 07:47:59 51°17.704 2°51.762 10.5 26 15.9 101990 40
2011-09-20 07:48:04 51°17.716 2°51.742 9.5 307 15.9 101990 40
2011-09-20 07:48:09 51°17.728 2°51.723 5.1 21 15.9 101980 42
2011-09-20 07:48:14 51°17.739 2°51.703 9.9 302 15.9 101980 42
2011-09-20 07:48:19 51°17.752 2°51.684 11.3 24 15.9 101980 41
2011-09-20 07:48:25 51°17.767 2°51.661 10 307 15.9 101980 41
2011-09-20 07:48:29 51°17.777 2°51.647 9.9 25 15.9 101980 40
2011-09-20 07:48:34 51°17.79 2°51.629 12.3 310 15.9 101980 40
2011-09-20 07:48:39 51°17.803 2°51.612 10.6 24 15.9 101980 42
2011-09-20 07:48:44 51°17.817 2°51.594 10.6 308 15.9 101980 42
2011-09-20 07:48:50 51°17.833 2°51.575 8.9 27 15.9 101990 41
2011-09-20 07:48:54 51°17.844 2°51.561 10 304 15.9 101990 41
2011-09-20 07:48:59 51°17.857 2°51.544 10.7 20 15.9 101980 42
2011-09-20 07:49:05 51°17.873 2°51.524 10.8 304 15.9 101980 42
2011-09-20 07:49:09 51°17.884 2°51.511 10.1 21 15.9 101990 42
2011-09-20 07:49:14 51°17.898 2°51.494 9.6 309 15.9 101990 42
2011-09-20 07:49:19 51°17.911 2°51.478 8.7 246 15.9 101990 42
2011-09-20 07:49:25 51°17.928 2°51.458 9 279 15.9 101990 42
2011-09-20 07:49:30 51°17.942 2°51.442 9.7 250 15.9 101990 42
2011-09-20 07:49:34 51°17.953 2°51.429 10.4 309 15.9 101990 42
2011-09-20 07:49:39 51°17.967 2°51.413 7.9 246 15.9 101990 42
2011-09-20 07:49:44 51°17.981 2°51.396 4.1 308 15.9 101990 42
2011-09-20 07:49:50 51°17.997 2°51.377 8.2 25 15.9 101990 41
2011-09-20 07:49:54 51°18.009 2°51.365 8.1 306 15.9 101990 41
2011-09-20 07:49:59 51°18.022 2°51.348 9.7 20 15.9 102000 42
2011-09-20 07:50:04 51°18.036 2°51.332 8.8 306 15.9 102000 42
2011-09-20 07:50:10 51°18.053 2°51.313 8.8 247 15.9 101980 42
2011-09-20 07:50:14 51°18.065 2°51.301 8.9 302 15.9 101980 42
2011-09-20 07:50:19 51°18.079 2°51.285 8.7 248 15.9 101980 42
2011-09-20 07:50:24 51°18.094 2°51.271 8.8 306 15.9 101980 42
2011-09-20 07:50:30 51°18.111 2°51.254 8.2 249 15.9 101980 42
2011-09-20 07:50:34 51°18.123 2°51.242 8.3 306 15.9 101980 42
2011-09-20 07:50:39 51°18.138 2°51.227 7.6 21 15.9 102000 41
2011-09-20 07:50:45 51°18.155 2°51.209 8.5 305 15.9 102000 41
2011-09-20 07:50:49 51°18.167 2°51.197 7.8 250 15.9 102010 42
2011-09-20 07:50:54 51°18.182 2°51.182 9.8 306 15.9 102010 42
2011-09-20 07:50:59 51°18.196 2°51.166 8.3 250 15.9 102000 42
2011-09-20 07:51:04 51°18.21 2°51.15 8.2 305 15.9 102000 42
2011-09-20 07:51:10 51°18.227 2°51.131 8.3 245 15.9 102010 41
2011-09-20 07:51:14 51°18.238 2°51.119 7.2 301 15.9 102010 41
2011-09-20 07:51:18 51°18.249 2°51.107 7.7 245 15.9 102000 42
2011-09-20 07:51:25 51°18.267 2°51.088 9.3 281 15.9 102000 42
2011-09-20 07:51:29 51°18.276 2°51.077 9.2 250 15.9 102000 41
2011-09-20 07:51:34 51°18.288 2°51.065 7.5 309 15.9 102000 41
2011-09-20 07:51:39 51°18.299 2°51.053 7.9 252 15.9 102000 42
2011-09-20 07:51:44 51°18.31 2°51.042 10.2 304 15.9 102000 42
2011-09-20 07:51:50 51°18.323 2°51.03 8.2 253 15.9 102000 42
2011-09-20 07:51:54 51°18.332 2°51.021 10.1 310 15.9 102000 42
2011-09-20 07:51:59 51°18.343 2°51.012 8.3 260 15.9 101990 42
2011-09-20 07:52:04 51°18.353 2°51.004 6.8 307 15.9 101990 42
2011-09-20 07:52:10 51°18.366 2°50.998 6.9 270 15.9 102010 41
2011-09-20 07:52:14 51°18.373 2°50.996 6.3 55 15.9 102010 41
2011-09-20 07:52:19 51°18.383 2°50.994 5.8 22 15.9 102010 42
2011-09-20 07:52:24 51°18.391 2°50.994 6.4 52 15.9 102010 42
2011-09-20 07:52:29 51°18.399 2°50.995 6.9 29 15.9 102020 41
2011-09-20 07:52:34 51°18.407 2°50.996 6.5 53 15.9 102020 41
2011-09-20 07:52:39 51°18.414 2°50.998 6.3 27 15.9 102020 42
2011-09-20 07:52:44 51°18.422 2°51 5.7 53 15.9 102020 42
2011-09-20 07:52:49 51°18.429 2°51.003 6.4 25 15.9 102000 41
2011-09-20 07:52:54 51°18.435 2°51.005 5.3 54 15.9 102000 41
2011-09-20 07:52:59 51°18.442 2°51.007 5.9 29 15.9 102000 41
2011-09-20 07:53:04 51°18.448 2°51.009 6.4 53 15.9 102000 41
2011-09-20 07:53:10 51°18.456 2°51.011 7.5 27 15.9 102000 41
2011-09-20 07:53:14 51°18.461 2°51.012 6.4 52 15.9 102000 41
2011-09-20 07:53:19 51°18.467 2°51.013 7.5 25 15.9 102000 41
2011-09-20 07:53:25 51°18.474 2°51.014 7.5 81 15.9 102000 41
2011-09-20 07:53:29 51°18.478 2°51.015 7.4 22 15.9 102000 41
2011-09-20 07:53:34 51°18.483 2°51.016 7.4 51 15.9 102000 41
2011-09-20 07:53:39 51°18.488 2°51.016 7.2 29 15.9 102000 42
2011-09-20 07:53:44 51°18.493 2°51.017 7.5 55 15.9 102000 42
2011-09-20 07:53:50 51°18.497 2°51.017 6.6 21 15.9 102000 41
2011-09-20 07:53:54 51°18.5 2°51.018 6.5 57 15.9 102000 41
2011-09-20 07:53:59 51°18.503 2°51.019 8.7 28 15.9 102000 42
2011-09-20 07:54:04 51°18.505 2°51.02 7.5 53 15.9 102000 42
2011-09-20 07:54:10 51°18.507 2°51.021 8 23 15.9 102000 41
2011-09-20 07:54:14 51°18.508 2°51.022 8.6 53 15.9 102000 41
2011-09-20 07:54:19 51°18.509 2°51.023 8.8 26 15.9 102000 42
2011-09-20 07:54:24 51°18.509 2°51.023 8.6 57 15.9 102000 42
2011-09-20 07:54:30 51°18.51 2°51.024 8.3 27 15.9 102000 42
2011-09-20 07:54:34 51°18.51 2°51.024 8.9 54 15.9 102000 42
2011-09-20 07:54:39 51°18.51 2°51.025 7.3 23 15.8 102000 42
2011-09-20 07:54:44 51°18.51 2°51.025 9.2 53 15.8 102000 42
2011-09-20 07:54:49 51°18.511 2°51.026 8.2 26 15.8 102000 42
2011-09-20 07:54:54 51°18.512 2°51.026 7.6 50 15.8 102000 42
2011-09-20 07:54:59 51°18.512 2°51.027 8.1 25 15.9 101990 43
2011-09-20 07:55:04 51°18.513 2°51.028 7.9 54 15.9 101990 43
2011-09-20 07:55:10 51°18.514 2°51.03 7 22 15.8 101990 42
2011-09-20 07:55:14 51°18.515 2°51.031 7.1 57 15.8 101990 42
2011-09-20 07:55:19 51°18.516 2°51.032 7.2 28 15.8 102000 42
2011-09-20 07:55:25 51°18.517 2°51.033 7.9 74 15.8 102000 42
2011-09-20 07:55:29 51°18.518 2°51.034 7.3 21 15.8 101990 41
2011-09-20 07:55:34 51°18.519 2°51.034 7.4 55 15.8 101990 41
2011-09-20 07:55:39 51°18.52 2°51.036 7.5 27 15.8 101990 42
2011-09-20 07:55:44 51°18.521 2°51.037 8.1 56 15.8 101990 42
2011-09-20 07:55:50 51°18.522 2°51.038 9.4 26 15.8 101990 41
2011-09-20 07:55:54 51°18.523 2°51.039 9.1 57 15.8 101990 41
2011-09-20 07:55:59 51°18.525 2°51.04 9.8 26 15.8 101990 41
2011-09-20 07:56:05 51°18.526 2°51.042 9 52 15.8 101990 41
2011-09-20 07:56:10 51°18.528 2°51.043 10 22 15.8 101990 42
2011-09-20 07:56:14 51°18.529 2°51.044 8.8 59 15.8 101990 42
2011-09-20 07:56:19 51°18.531 2°51.045 9.1 25 15.8 102000 42
2011-09-20 07:56:24 51°18.532 2°51.047 7.4 76 15.8 102000 42
2011-09-20 07:56:30 51°18.534 2°51.048 7.6 24 15.8 101990 41
2011-09-20 07:56:34 51°18.535 2°51.049 8.3 52 15.8 101990 41
2011-09-20 07:56:39 51°18.537 2°51.05 7.6 19 15.7 102000 42
2011-09-20 07:56:44 51°18.538 2°51.051 7.4 54 15.7 102000 42
2011-09-20 07:56:49 51°18.54 2°51.052 6.1 23 15.8 101990 42
2011-09-20 07:56:54 51°18.542 2°51.053 8.8 59 15.8 101990 42
2011-09-20 07:56:58 51°18.543 2°51.055 7.9 21 15.8 101990 42
2011-09-20 07:57:04 51°18.545 2°51.056 7.3 51 15.8 101990 42
2011-09-20 07:57:09 51°18.547 2°51.057 7.9 20 15.8 102000 42
2011-09-20 07:57:14 51°18.548 2°51.058 7.5 56 15.8 102000 42
2011-09-20 07:57:19 51°18.55 2°51.059 7.9 24 15.8 102000 42
2011-09-20 07:57:24 51°18.552 2°51.06 8.1 52 15.8 102000 42
2011-09-20 07:57:30 51°18.554 2°51.061 7.7 28 15.8 101990 41
2011-09-20 07:57:34 51°18.555 2°51.062 8.1 54 15.8 101990 41
2011-09-20 07:57:39 51°18.557 2°51.063 7.8 28 15.8 101990 42
2011-09-20 07:57:45 51°18.559 2°51.064 8.4 52 15.8 101990 42
2011-09-20 07:57:49 51°18.56 2°51.065 8.6 25 15.8 102000 42
2011-09-20 07:57:54 51°18.561 2°51.065 8 58 15.8 102000 42
2011-09-20 07:57:59 51°18.563 2°51.066 7.9 22 15.8 102000 41
2011-09-20 07:58:04 51°18.565 2°51.066 6.6 54 15.8 102000 41
2011-09-20 07:58:10 51°18.567 2°51.067 8.8 27 15.8 101990 41
2011-09-20 07:58:14 51°18.568 2°51.068 7.9 62 15.8 101990 41
2011-09-20 07:58:19 51°18.569 2°51.068 7.9 27 15.8 102000 42
2011-09-20 07:58:25 51°18.571 2°51.069 7.1 80 15.8 102000 42
2011-09-20 07:58:30 51°18.573 2°51.07 7.6 29 15.8 102000 42
2011-09-20 07:58:34 51°18.574 2°51.07 7.5 309 15.8 102000 42
2011-09-20 07:58:39 51°18.575 2°51.071 7.2 269 15.8 101990 40
2011-09-20 07:58:44 51°18.577 2°51.071 8.1 59 15.8 101990 40
2011-09-20 07:58:49 51°18.579 2°51.072 7.8 270 15.9 102000 42
2011-09-20 07:58:54 51°18.58 2°51.072 7.3 306 15.9 102000 42
2011-09-20 07:58:59 51°18.582 2°51.073 6.9 24 15.9 102010 41
2011-09-20 07:59:04 51°18.583 2°51.074 6.8 302 15.9 102010 41
2011-09-20 07:59:09 51°18.584 2°51.075 7.5 270 15.9 102010 40
2011-09-20 07:59:14 51°18.586 2°51.075 7.1 308 15.9 102010 40
2011-09-20 07:59:19 51°18.587 2°51.076 6.4 269 15.8 102000 41
2011-09-20 07:59:24 51°18.588 2°51.076 5.4 303 15.8 102000 41
2011-09-20 07:59:30 51°18.59 2°51.077 5.7 265 15.8 102000 43
2011-09-20 07:59:34 51°18.591 2°51.078 5.3 303 15.8 102000 43
2011-09-20 07:59:39 51°18.593 2°51.078 5.7 264 15.9 102010 42
2011-09-20 07:59:45 51°18.596 2°51.078 6.6 305 15.9 102010 42
2011-09-20 07:59:49 51°18.598 2°51.078 5.9 27 15.9 102010 42
2011-09-20 07:59:54 51°18.601 2°51.078 5.7 54 15.9 102010 42
2011-09-20 07:59:59 51°18.605 2°51.077 5.3 28 15.9 102010 43
2011-09-20 08:00:05 51°18.611 2°51.077 7.7 49 15.9 102010 43
2011-09-20 08:00:10 51°18.616 2°51.078 6.3 26 15.9 102010 42
2011-09-20 08:00:14 51°18.621 2°51.079 5.9 53 15.9 102010 42
2011-09-20 08:00:19 51°18.627 2°51.081 5.2 28 15.9 102000 42
2011-09-20 08:00:25 51°18.633 2°51.086 3.4 76 15.9 102000 42
2011-09-20 08:00:30 51°18.639 2°51.091 4.2 19 15.9 102000 41
2011-09-20 08:00:34 51°18.644 2°51.096 6.5 54 15.9 102000 41
2011-09-20 08:00:39 51°18.649 2°51.104 6.1 24 15.9 102000 43
2011-09-20 08:00:45 51°18.655 2°51.115 6 52 15.9 102000 43
2011-09-20 08:00:49 51°18.66 2°51.123 6.6 44 15.9 102000 43
2011-09-20 08:00:54 51°18.666 2°51.135 6.3 39 15.9 102000 43
2011-09-20 08:00:59 51°18.67 2°51.149 5.9 40 15.9 102000 42
2011-09-20 08:01:04 51°18.676 2°51.164 6.7 36 15.9 102000 42
2011-09-20 08:01:09 51°18.68 2°51.18 5.7 37 15.9 101990 41
2011-09-20 08:01:14 51°18.685 2°51.198 6.1 34 15.9 101990 41
2011-09-20 08:01:19 51°18.69 2°51.216 5.3 35 15.9 101990 41
2011-09-20 08:01:24 51°18.695 2°51.235 5.8 26 15.9 101990 41
2011-09-20 08:01:29 51°18.699 2°51.257 4.2 22 15.9 101990 42
2011-09-20 08:01:34 51°18.705 2°51.278 4.7 27 15.9 101990 42
2011-09-20 08:01:39 51°18.709 2°51.301 6.4 28 15.9 101990 41
2011-09-20 08:01:45 51°18.717 2°51.329 5.3 28 15.9 101990 41
2011-09-20 08:01:49 51°18.721 2°51.347 5.9 26 15.9 102000 40
2011-09-20 08:01:54 51°18.727 2°51.372 6.3 30 15.9 102000 40
2011-09-20 08:01:59 51°18.734 2°51.396 5.7 27 15.9 102000 42
2011-09-20 08:02:04 51°18.74 2°51.421 5.4 24 15.9 102000 42
2011-09-20 08:02:10 51°18.748 2°51.451 4.3 28 15.9 102000 42
2011-09-20 08:02:14 51°18.752 2°51.471 5 21 15.9 102000 42
2011-09-20 08:02:19 51°18.759 2°51.497 5.3 25 15.9 102000 42
2011-09-20 08:02:25 51°18.767 2°51.528 5.4 24 15.9 102000 42
2011-09-20 08:02:29 51°18.773 2°51.548 5.6 29 15.9 102000 42
2011-09-20 08:02:34 51°18.78 2°51.573 5.2 26 15.9 102000 42
2011-09-20 08:02:39 51°18.787 2°51.598 5.8 27 15.9 102000 43
2011-09-20 08:02:44 51°18.794 2°51.623 4.6 27 15.9 102000 43
2011-09-20 08:02:50 51°18.802 2°51.653 4.3 23 15.9 102000 42
2011-09-20 08:02:54 51°18.808 2°51.673 4.6 27 15.9 102000 42
2011-09-20 08:02:59 51°18.816 2°51.698 4.1 21 15.9 102010 42
2011-09-20 08:03:04 51°18.822 2°51.723 4.7 22 15.9 102010 42
2011-09-20 08:03:10 51°18.83 2°51.753 4.8 27 15.8 102000 42
2011-09-20 08:03:14 51°18.836 2°51.773 4.9 23 15.8 102000 42
2011-09-20 08:03:19 51°18.842 2°51.799 5.5 19 15.8 102000 43
2011-09-20 08:03:24 51°18.849 2°51.825 5.8 26 15.8 102000 43
2011-09-20 08:03:29 51°18.855 2°51.85 5.9 21 15.9 102000 41
2011-09-20 08:03:34 51°18.862 2°51.876 5.7 30 15.9 102000 41
2011-09-20 08:03:39 51°18.869 2°51.9 5.5 23 15.9 102010 42
2011-09-20 08:03:45 51°18.876 2°51.932 5.3 29 15.9 102010 42
2011-09-20 08:03:49 51°18.881 2°51.953 5.5 23 15.9 102000 42
2011-09-20 08:03:54 51°18.887 2°51.978 4.8 24 15.9 102000 42
2011-09-20 08:03:59 51°18.893 2°52.004 5.7 16 15.9 102000 40
2011-09-20 08:04:04 51°18.899 2°52.03 5.3 19 15.9 102000 40
2011-09-20 08:04:10 51°18.906 2°52.062 4.8 22 15.9 102000 42
2011-09-20 08:04:14 51°18.911 2°52.082 5.6 22 15.9 102000 42
2011-09-20 08:04:19 51°18.917 2°52.108 5.6 23 15.9 102000 43
2011-09-20 08:04:25 51°18.925 2°52.138 6.5 21 15.9 102000 43
2011-09-20 08:04:29 51°18.929 2°52.159 4.8 23 15.9 102010 41
2011-09-20 08:04:34 51°18.937 2°52.184 5.8 20 15.9 102010 41
2011-09-20 08:04:39 51°18.942 2°52.21 5.3 19 15.9 102000 42
2011-09-20 08:04:44 51°18.95 2°52.235 5.4 19 15.9 102000 42
2011-09-20 08:04:50 51°18.957 2°52.265 6.6 25 15.9 102010 41
2011-09-20 08:04:54 51°18.962 2°52.286 6.3 28 15.9 102010 41
2011-09-20 08:04:59 51°18.968 2°52.312 5.6 26 15.9 102010 43
2011-09-20 08:05:05 51°18.977 2°52.341 6.9 26 15.9 102010 43
2011-09-20 08:05:10 51°18.982 2°52.368 6.8 28 15.9 102000 42
2011-09-20 08:05:14 51°18.988 2°52.388 6.5 29 15.9 102000 42
2011-09-20 08:05:19 51°18.993 2°52.414 6.4 26 15.9 102000 41
2011-09-20 08:05:24 51°18.999 2°52.44 5.8 24 15.9 102000 41
2011-09-20 08:05:29 51°19.006 2°52.465 5.9 23 15.8 102000 42
2011-09-20 08:05:34 51°19.011 2°52.492 5.5 22 15.8 102000 42
2011-09-20 08:05:39 51°19.018 2°52.517 5.7 20 15.8 102000 41
2011-09-20 08:05:44 51°19.024 2°52.542 5.2 25 15.8 102000 41
2011-09-20 08:05:50 51°19.031 2°52.573 5.6 22 15.8 102000 42
2011-09-20 08:05:54 51°19.037 2°52.593 5.2 28 15.8 102000 42
2011-09-20 08:05:59 51°19.044 2°52.618 5.2 33 15.8 102000 41
2011-09-20 08:06:04 51°19.051 2°52.643 4.9 25 15.8 102000 41
2011-09-20 08:06:09 51°19.059 2°52.668 4.9 29 15.8 102000 43
2011-09-20 08:06:14 51°19.066 2°52.693 4.9 30 15.8 102000 43
2011-09-20 08:06:19 51°19.074 2°52.717 4.8 28 15.8 102000 41
2011-09-20 08:06:24 51°19.08 2°52.743 4.3 21 15.8 102000 41
2011-09-20 08:06:29 51°19.087 2°52.768 5.6 21 15.8 102010 43
2011-09-20 08:06:34 51°19.094 2°52.793 5.5 25 15.8 102010 43
2011-09-20 08:06:39 51°19.101 2°52.819 6.5 26 15.8 102000 41
2011-09-20 08:06:44 51°19.107 2°52.844 6.5 22 15.8 102000 41
2011-09-20 08:06:50 51°19.114 2°52.875 6.5 25 15.9 102000 41
2011-09-20 08:06:54 51°19.12 2°52.895 5.7 29 15.9 102000 41
2011-09-20 08:06:59 51°19.127 2°52.921 5.5 23 15.8 102000 42
2011-09-20 08:07:05 51°19.135 2°52.952 4.8 23 15.8 102000 42
2011-09-20 08:07:09 51°19.14 2°52.973 5.3 24 15.8 102000 40
2011-09-20 08:07:14 51°19.146 2°52.998 4.9 23 15.8 102000 40
2011-09-20 08:07:19 51°19.154 2°53.024 4.7 26 15.8 102000 41
2011-09-20 08:07:25 51°19.162 2°53.055 5.6 18 15.8 102000 41
2011-09-20 08:07:30 51°19.168 2°53.08 5 22 15.8 102000 42
2011-09-20 08:07:34 51°19.174 2°53.1 5.9 26 15.8 102000 42
2011-09-20 08:07:39 51°19.179 2°53.126 5.9 16 15.9 102010 42
2011-09-20 08:07:44 51°19.187 2°53.151 7.1 27 15.9 102010 42
2011-09-20 08:07:50 51°19.193 2°53.181 6.8 27 15.9 102010 42
2011-09-20 08:07:54 51°19.198 2°53.201 5.7 27 15.9 102010 42
2011-09-20 08:07:59 51°19.204 2°53.227 6.1 30 15.9 102000 42
2011-09-20 08:08:04 51°19.21 2°53.251 5.3 28 15.9 102000 42
2011-09-20 08:08:09 51°19.215 2°53.277 5.2 26 15.9 102010 41
2011-09-20 08:08:14 51°19.222 2°53.302 4.7 22 15.9 102010 41
2011-09-20 08:08:19 51°19.228 2°53.328 5.1 30 15.9 102000 42
2011-09-20 08:08:24 51°19.235 2°53.352 5.6 27 15.9 102000 42
2011-09-20 08:08:29 51°19.241 2°53.378 5.9 33 15.8 102010 42
2011-09-20 08:08:34 51°19.247 2°53.403 7.2 27 15.8 102010 42
2011-09-20 08:08:39 51°19.252 2°53.429 6.3 30 15.9 102010 42
2011-09-20 08:08:44 51°19.257 2°53.454 5 28 15.9 102010 42
2011-09-20 08:08:50 51°19.265 2°53.484 4.6 24 15.9 102010 42
2011-09-20 08:08:54 51°19.27 2°53.504 4.8 22 15.9 102010 42
2011-09-20 08:08:59 51°19.276 2°53.529 4.9 24 15.8 102010 41
2011-09-20 08:09:05 51°19.283 2°53.56 6.8 21 15.8 102010 41
2011-09-20 08:09:09 51°19.288 2°53.58 6.3 23 15.8 102000 41
2011-09-20 08:09:14 51°19.295 2°53.605 6.7 25 15.8 102000 41
2011-09-20 08:09:19 51°19.301 2°53.632 6.1 30 15.8 102000 39
2011-09-20 08:09:24 51°19.308 2°53.657 6.6 29 15.8 102000 39
2011-09-20 08:09:30 51°19.314 2°53.687 7 27 15.9 102010 41
2011-09-20 08:09:34 51°19.32 2°53.708 5.7 32 15.9 102010 41
2011-09-20 08:09:39 51°19.328 2°53.733 6.4 27 15.9 102010 42
2011-09-20 08:09:44 51°19.333 2°53.758 5.2 19 15.9 102010 42
2011-09-20 08:09:50 51°19.341 2°53.788 4.9 22 15.9 102010 41
2011-09-20 08:09:54 51°19.347 2°53.809 5.3 20 15.9 102010 41
2011-09-20 08:09:59 51°19.354 2°53.834 7.1 25 15.9 102000 41
2011-09-20 08:10:04 51°19.359 2°53.859 4.9 30 15.9 102000 41
2011-09-20 08:10:10 51°19.368 2°53.889 6.1 30 15.8 102010 41
2011-09-20 08:10:14 51°19.373 2°53.908 5.2 30 15.8 102010 41
2011-09-20 08:10:19 51°19.38 2°53.932 5.8 24 15.8 102000 42
2011-09-20 08:10:24 51°19.386 2°53.958 4.9 23 15.8 102000 42
2011-09-20 08:10:29 51°19.394 2°53.982 5.5 25 15.9 102000 41
2011-09-20 08:10:34 51°19.4 2°54.008 5.6 24 15.9 102000 41
2011-09-20 08:10:38 51°19.406 2°54.027 5.5 26 15.9 102010 41
2011-09-20 08:10:45 51°19.416 2°54.062 5.4 30 15.9 102010 41
2011-09-20 08:10:49 51°19.421 2°54.083 4.9 28 15.9 102000 42
2011-09-20 08:10:54 51°19.429 2°54.107 5.7 31 15.9 102000 42
2011-09-20 08:10:59 51°19.435 2°54.132 4.9 31 15.9 102010 41
2011-09-20 08:11:04 51°19.442 2°54.158 5.3 26 15.9 102010 41
2011-09-20 08:11:10 51°19.449 2°54.188 6 27 15.9 102000 42
2011-09-20 08:11:14 51°19.455 2°54.208 5.5 24 15.9 102000 42
2011-09-20 08:11:19 51°19.46 2°54.234 4.2 29 15.9 102010 41
2011-09-20 08:11:25 51°19.47 2°54.264 5 23 15.9 102010 41
2011-09-20 08:11:29 51°19.475 2°54.284 5.2 28 15.9 102010 42
2011-09-20 08:11:34 51°19.483 2°54.308 5.5 37 15.9 102010 42
2011-09-20 08:11:39 51°19.49 2°54.333 5.2 33 15.9 102010 42
2011-09-20 08:11:44 51°19.498 2°54.357 5.2 32 15.9 102010 42
2011-09-20 08:11:50 51°19.507 2°54.386 4.5 28 15.9 102010 42
2011-09-20 08:11:54 51°19.514 2°54.405 4.3 32 15.9 102010 42
2011-09-20 08:11:59 51°19.52 2°54.431 4.7 32 15.9 102010 42
2011-09-20 08:12:04 51°19.527 2°54.455 4.5 27 15.9 102010 42
2011-09-20 08:12:10 51°19.536 2°54.485 3.7 23 15.9 102010 42
2011-09-20 08:12:14 51°19.542 2°54.505 4.6 29 15.9 102010 42
2011-09-20 08:12:19 51°19.549 2°54.529 4.3 26 15.9 102010 41
2011-09-20 08:12:24 51°19.556 2°54.554 3.6 32 15.9 102010 41
2011-09-20 08:12:29 51°19.564 2°54.579 4.3 29 15.9 102010 39
2011-09-20 08:12:34 51°19.571 2°54.604 5 29 15.9 102010 39
2011-09-20 08:12:39 51°19.578 2°54.628 5.1 32 15.9 102010 41
2011-09-20 08:12:45 51°19.586 2°54.659 4.9 31 15.9 102010 41
2011-09-20 08:12:49 51°19.591 2°54.679 5.6 30 15.9 102020 41
2011-09-20 08:12:54 51°19.597 2°54.704 4.7 22 15.9 102020 41
2011-09-20 08:12:59 51°19.603 2°54.728 5.3 25 15.9 102010 41
2011-09-20 08:13:05 51°19.611 2°54.759 4.9 25 15.9 102010 41
2011-09-20 08:13:09 51°19.617 2°54.779 4.3 23 15.9 102010 41
2011-09-20 08:13:14 51°19.623 2°54.803 6.4 29 15.9 102010 41
2011-09-20 08:13:19 51°19.629 2°54.828 4.8 27 15.9 102020 41
2011-09-20 08:13:24 51°19.637 2°54.853 5.7 28 15.9 102020 41
2011-09-20 08:13:30 51°19.644 2°54.883 5 30 15.9 102010 41
2011-09-20 08:13:34 51°19.648 2°54.903 5.3 29 15.9 102010 41
2011-09-20 08:13:39 51°19.655 2°54.928 4.9 26 15.9 102020 41
2011-09-20 08:13:45 51°19.662 2°54.959 5.3 29 15.9 102020 41
2011-09-20 08:13:49 51°19.667 2°54.979 5.1 27 15.9 102010 41
2011-09-20 08:13:54 51°19.673 2°55.004 5.7 24 15.9 102010 41
2011-09-20 08:13:59 51°19.678 2°55.029 4.7 28 16 102010 42
2011-09-20 08:14:05 51°19.686 2°55.059 5.9 24 16 102010 42
2011-09-20 08:14:10 51°19.692 2°55.084 6.6 27 16 102010 42
2011-09-20 08:14:14 51°19.696 2°55.105 6.7 26 16 102010 42
2011-09-20 08:14:19 51°19.702 2°55.131 6.1 26 15.9 102020 42
2011-09-20 08:14:24 51°19.709 2°55.155 5.6 28 15.9 102020 42
2011-09-20 08:14:30 51°19.716 2°55.186 5.4 28 16 102020 41
2011-09-20 08:14:34 51°19.722 2°55.206 4.4 31 16 102020 41
2011-09-20 08:14:39 51°19.728 2°55.232 6.1 25 16 102020 42
2011-09-20 08:14:44 51°19.734 2°55.257 4.9 26 16 102020 42
2011-09-20 08:14:49 51°19.741 2°55.282 5.3 28 15.9 102020 42
2011-09-20 08:14:54 51°19.748 2°55.307 5.5 29 15.9 102020 42
2011-09-20 08:14:59 51°19.756 2°55.331 5.3 29 15.9 102020 41
2011-09-20 08:15:05 51°19.763 2°55.361 4.9 27 15.9 102020 41
2011-09-20 08:15:09 51°19.769 2°55.381 5 29 15.9 102010 40
2011-09-20 08:15:14 51°19.775 2°55.406 4.6 25 15.9 102010 40
2011-09-20 08:15:19 51°19.781 2°55.431 5.1 24 15.9 102020 42
2011-09-20 08:15:24 51°19.787 2°55.457 5.5 24 15.9 102020 42
2011-09-20 08:15:30 51°19.794 2°55.487 5.7 20 15.9 102020 41
2011-09-20 08:15:34 51°19.799 2°55.507 5.3 15 15.9 102020 41
2011-09-20 08:15:39 51°19.805 2°55.533 6.9 26 15.9 102020 42
2011-09-20 08:15:45 51°19.811 2°55.564 5.8 28 15.9 102020 42
2011-09-20 08:15:49 51°19.816 2°55.585 6.3 24 15.9 102020 42
2011-09-20 08:15:54 51°19.821 2°55.611 7 27 15.9 102020 42
2011-09-20 08:15:59 51°19.827 2°55.637 6.6 28 16 102010 42
2011-09-20 08:16:04 51°19.831 2°55.663 6 30 16 102010 42
2011-09-20 08:16:10 51°19.839 2°55.694 6.1 30 16 102010 42
2011-09-20 08:16:14 51°19.842 2°55.715 5.1 32 16 102010 42
2011-09-20 08:16:18 51°19.847 2°55.736 5.4 26 15.9 102010 41
2011-09-20 08:16:25 51°19.854 2°55.772 5.2 21 15.9 102010 41
2011-09-20 08:16:29 51°19.859 2°55.792 6.2 21 15.9 102010 41
2011-09-20 08:16:34 51°19.864 2°55.818 6.2 28 15.9 102010 41
2011-09-20 08:16:39 51°19.87 2°55.843 6.8 27 15.9 102010 41
2011-09-20 08:16:44 51°19.875 2°55.868 6.9 26 15.9 102010 41
2011-09-20 08:16:50 51°19.882 2°55.898 5.5 25 15.9 102020 42
2011-09-20 08:16:54 51°19.885 2°55.919 6.7 25 15.9 102020 42
2011-09-20 08:16:58 51°19.888 2°55.94 5.6 27 15.9 102020 42
2011-09-20 08:17:04 51°19.894 2°55.971 6.7 20 15.9 102020 42
2011-09-20 08:17:09 51°19.898 2°55.998 5.5 22 15.9 102010 42
2011-09-20 08:17:14 51°19.902 2°56.024 6.5 19 15.9 102010 42
2011-09-20 08:17:19 51°19.905 2°56.051 6.8 21 15.9 102020 41
2011-09-20 08:17:24 51°19.908 2°56.078 5.5 22 15.9 102020 41
2011-09-20 08:17:29 51°19.911 2°56.104 7.3 20 15.9 102020 42
2011-09-20 08:17:34 51°19.915 2°56.13 6.4 24 15.9 102020 42
2011-09-20 08:17:39 51°19.919 2°56.158 6.4 23 15.9 102020 41
2011-09-20 08:17:45 51°19.923 2°56.19 6.6 23 15.9 102020 41
2011-09-20 08:17:49 51°19.926 2°56.211 6.5 21 15.9 102020 41
2011-09-20 08:17:54 51°19.93 2°56.238 5.4 23 15.9 102020 41
2011-09-20 08:17:59 51°19.934 2°56.264 5.6 18 15.9 102010 41
2011-09-20 08:18:05 51°19.938 2°56.296 6.6 22 15.9 102010 41
2011-09-20 08:18:10 51°19.941 2°56.323 8 22 16 102020 41
2011-09-20 08:18:14 51°19.944 2°56.344 6.3 27 16 102020 41
2011-09-20 08:18:19 51°19.947 2°56.369 6.4 26 15.9 102020 41
2011-09-20 08:18:25 51°19.951 2°56.402 6.2 27 15.9 102020 41
2011-09-20 08:18:30 51°19.955 2°56.428 6.3 27 16 102020 42
2011-09-20 08:18:34 51°19.958 2°56.449 6 23 16 102020 42
2011-09-20 08:18:39 51°19.962 2°56.475 6 22 15.9 102020 42
2011-09-20 08:18:45 51°19.967 2°56.507 5.6 20 15.9 102020 42
2011-09-20 08:18:49 51°19.97 2°56.528 5.3 20 15.9 102020 42
2011-09-20 08:18:54 51°19.974 2°56.554 5.2 28 15.9 102020 42
2011-09-20 08:18:59 51°19.979 2°56.579 6.5 24 15.9 102020 42
2011-09-20 08:19:04 51°19.982 2°56.606 5.2 29 15.9 102020 42
2011-09-20 08:19:09 51°19.987 2°56.632 5.9 26 16 102020 41
2011-09-20 08:19:14 51°19.99 2°56.658 5.9 26 16 102020 41
2011-09-20 08:19:19 51°19.994 2°56.684 6 21 16 102020 42
2011-09-20 08:19:24 51°19.997 2°56.711 6 17 16 102020 42
2011-09-20 08:19:29 51°20 2°56.738 6.6 21 16 102020 41
2011-09-20 08:19:34 51°20.005 2°56.764 5 23 16 102020 41
2011-09-20 08:19:39 51°20.008 2°56.789 6 25 16 102020 42
2011-09-20 08:19:45 51°20.014 2°56.821 5.4 22 16 102020 42
2011-09-20 08:19:49 51°20.018 2°56.842 7.7 22 16 102020 41
2011-09-20 08:19:54 51°20.021 2°56.867 7 25 16 102020 41
2011-09-20 08:19:59 51°20.026 2°56.893 7 22 16 102030 42
2011-09-20 08:20:04 51°20.03 2°56.92 5.7 25 16 102030 42
2011-09-20 08:20:10 51°20.035 2°56.951 6.4 22 16 102030 41
2011-09-20 08:20:14 51°20.038 2°56.972 6.9 22 16 102030 41
2011-09-20 08:20:19 51°20.042 2°56.999 6.5 24 16 102020 42
2011-09-20 08:20:25 51°20.048 2°57.03 6.6 20 16 102020 42
2011-09-20 08:20:29 51°20.051 2°57.051 7.3 25 16 102020 40
2011-09-20 08:20:34 51°20.055 2°57.077 7 24 16 102020 40
2011-09-20 08:20:39 51°20.058 2°57.103 6.6 24 16 102020 41
2011-09-20 08:20:45 51°20.064 2°57.135 6 23 16 102020 41
2011-09-20 08:20:50 51°20.067 2°57.161 6.3 23 16 102030 41
2011-09-20 08:20:54 51°20.069 2°57.182 6.3 19 16 102030 41
2011-09-20 08:20:59 51°20.072 2°57.208 6.7 25 16 102020 41
2011-09-20 08:21:04 51°20.077 2°57.234 6.3 27 16 102020 41
2011-09-20 08:21:10 51°20.082 2°57.266 5.4 22 16 102020 41
2011-09-20 08:21:14 51°20.085 2°57.287 6.2 22 16 102020 41
2011-09-20 08:21:19 51°20.09 2°57.313 5.7 15 16 102020 41
2011-09-20 08:21:24 51°20.094 2°57.339 5.6 19 16 102020 41
2011-09-20 08:21:29 51°20.098 2°57.365 5.5 27 16 102030 41
2011-09-20 08:21:34 51°20.102 2°57.391 5.5 26 16 102030 41
2011-09-20 08:21:39 51°20.108 2°57.416 6.9 19 16 102020 41
2011-09-20 08:21:44 51°20.111 2°57.442 5.8 27 16 102020 41
2011-09-20 08:21:49 51°20.115 2°57.468 7.7 23 16 102030 41
2011-09-20 08:21:54 51°20.119 2°57.495 4.4 25 16 102030 41
2011-09-20 08:21:59 51°20.123 2°57.521 6.2 25 16 102030 41
2011-09-20 08:22:05 51°20.128 2°57.551 5.7 28 16 102030 41
2011-09-20 08:22:09 51°20.132 2°57.571 5.7 21 16 102020 42
2011-09-20 08:22:14 51°20.135 2°57.597 7.2 25 16 102020 42
2011-09-20 08:22:19 51°20.14 2°57.623 6.6 25 16 102030 41
2011-09-20 08:22:24 51°20.143 2°57.649 6.5 23 16 102030 41
2011-09-20 08:22:30 51°20.148 2°57.68 7 26 16 102030 42
2011-09-20 08:22:34 51°20.15 2°57.701 6.1 21 16 102030 42
2011-09-20 08:22:39 51°20.153 2°57.728 6.1 14 16 102020 41
2011-09-20 08:22:45 51°20.157 2°57.759 6.3 23 16 102020 41
2011-09-20 08:22:49 51°20.16 2°57.78 5.1 24 16 102030 41
2011-09-20 08:22:54 51°20.165 2°57.805 5.7 25 16 102030 41
2011-09-20 08:22:59 51°20.169 2°57.831 6.2 24 16 102030 42
2011-09-20 08:23:05 51°20.175 2°57.862 5.6 24 16 102030 42
2011-09-20 08:23:10 51°20.18 2°57.887 5.1 26 16 102020 39
2011-09-20 08:23:14 51°20.184 2°57.907 5.3 25 16 102020 39
2011-09-20 08:23:19 51°20.189 2°57.933 5.4 25 16 102030 41
2011-09-20 08:23:24 51°20.194 2°57.958 5.3 25 16 102030 41
2011-09-20 08:23:29 51°20.199 2°57.984 5 19 16 102030 42
2011-09-20 08:23:34 51°20.204 2°58.009 6.6 31 16 102030 42
2011-09-20 08:23:39 51°20.209 2°58.035 5.9 31 16 102030 42
2011-09-20 08:23:44 51°20.214 2°58.06 6.3 28 16 102030 42
2011-09-20 08:23:49 51°20.218 2°58.086 5.7 27 16 102040 42
2011-09-20 08:23:54 51°20.223 2°58.111 5.1 24 16 102040 42
2011-09-20 08:23:59 51°20.228 2°58.136 6 26 16 102030 41
2011-09-20 08:24:04 51°20.232 2°58.161 5.6 25 16 102030 41
2011-09-20 08:24:09 51°20.237 2°58.187 6 25 16 102030 41
2011-09-20 08:24:14 51°20.242 2°58.213 5.8 27 16 102030 41
2011-09-20 08:24:19 51°20.247 2°58.24 5.2 22 16 102030 42
2011-09-20 08:24:25 51°20.253 2°58.272 5.9 22 16 102030 42
2011-09-20 08:24:29 51°20.257 2°58.292 5.2 23 16 102040 41
2011-09-20 08:24:34 51°20.261 2°58.318 4.8 23 16 102040 41
2011-09-20 08:24:39 51°20.265 2°58.345 5 19 16 102030 41
2011-09-20 08:24:45 51°20.27 2°58.378 6.6 23 16 102030 41
2011-09-20 08:24:50 51°20.274 2°58.404 6.7 24 16 102030 41
2011-09-20 08:24:54 51°20.277 2°58.425 5.7 25 16 102030 41
2011-09-20 08:24:59 51°20.281 2°58.451 5.6 26 16.1 102040 41
2011-09-20 08:25:05 51°20.286 2°58.481 5.3 22 16.1 102040 41
2011-09-20 08:25:09 51°20.289 2°58.501 6 20 16.1 102030 41
2011-09-20 08:25:14 51°20.292 2°58.527 6.7 22 16.1 102030 41
2011-09-20 08:25:19 51°20.296 2°58.554 6.4 23 16 102030 41
2011-09-20 08:25:24 51°20.3 2°58.579 6.3 25 16 102030 41
2011-09-20 08:25:30 51°20.306 2°58.609 6.2 28 16 102040 41
2011-09-20 08:25:34 51°20.309 2°58.63 5.8 27 16 102040 41
2011-09-20 08:25:39 51°20.314 2°58.656 5.1 23 16 102030 42
2011-09-20 08:25:44 51°20.319 2°58.681 5.3 21 16 102030 42
2011-09-20 08:25:50 51°20.325 2°58.711 6.4 27 16 102030 41
2011-09-20 08:25:54 51°20.329 2°58.732 5.8 22 16 102030 41
2011-09-20 08:25:59 51°20.334 2°58.757 5.8 23 16 102040 42
2011-09-20 08:26:04 51°20.34 2°58.782 6.7 26 16 102040 42
2011-09-20 08:26:09 51°20.343 2°58.808 5.6 24 16 102040 41
2011-09-20 08:26:14 51°20.349 2°58.833 7.3 30 16 102040 41
2011-09-20 08:26:19 51°20.353 2°58.858 6.6 26 16 102030 41
2011-09-20 08:26:25 51°20.359 2°58.888 5.9 30 16 102030 41
2011-09-20 08:26:29 51°20.363 2°58.908 6.1 24 16 102040 41
2011-09-20 08:26:34 51°20.368 2°58.933 6.6 29 16 102040 41
2011-09-20 08:26:39 51°20.372 2°58.959 5.8 26 16 102040 42
2011-09-20 08:26:44 51°20.376 2°58.984 4.8 23 16 102040 42
2011-09-20 08:26:50 51°20.382 2°59.015 5.7 26 16 102040 41
2011-09-20 08:26:54 51°20.386 2°59.035 5.5 20 16 102040 41
2011-09-20 08:26:59 51°20.39 2°59.061 6.3 29 16 102030 41
2011-09-20 08:27:05 51°20.395 2°59.092 7.1 29 16 102030 41
2011-09-20 08:27:10 51°20.398 2°59.118 5.5 27 16 102040 42
2011-09-20 08:27:14 51°20.401 2°59.139 6.1 22 16 102040 42
2011-09-20 08:27:19 51°20.404 2°59.165 6.7 19 16 102030 41
2011-09-20 08:27:25 51°20.409 2°59.197 5.8 25 16 102030 41
2011-09-20 08:27:30 51°20.412 2°59.223 5.9 25 16 102040 42
2011-09-20 08:27:34 51°20.414 2°59.244 6.1 23 16 102040 42
2011-09-20 08:27:39 51°20.418 2°59.27 7.4 22 16 102030 42
2011-09-20 08:27:44 51°20.422 2°59.297 5.7 24 16 102030 42
2011-09-20 08:27:50 51°20.426 2°59.328 7.1 26 16 102030 41
2011-09-20 08:27:54 51°20.429 2°59.349 7.3 25 16 102030 41
2011-09-20 08:27:59 51°20.432 2°59.376 6.2 25 16 102030 41
2011-09-20 08:28:04 51°20.437 2°59.403 5.7 23 16 102030 41
2011-09-20 08:28:09 51°20.44 2°59.429 5.6 14 16 102040 42
2011-09-20 08:28:14 51°20.444 2°59.454 5.8 19 16 102040 42
2011-09-20 08:28:19 51°20.448 2°59.481 7 24 16 102040 41
2011-09-20 08:28:25 51°20.453 2°59.513 7.8 22 16 102040 41
2011-09-20 08:28:29 51°20.456 2°59.534 6.3 27 16 102040 40
2011-09-20 08:28:34 51°20.46 2°59.559 8 25 16 102040 40
2011-09-20 08:28:39 51°20.463 2°59.585 7.4 26 16.1 102040 42
2011-09-20 08:28:45 51°20.469 2°59.616 6.4 26 16.1 102040 42
2011-09-20 08:28:49 51°20.472 2°59.637 5.9 25 16 102040 42
2011-09-20 08:28:54 51°20.476 2°59.662 6.4 28 16 102040 42
2011-09-20 08:28:59 51°20.481 2°59.687 5.6 27 16 102040 41
2011-09-20 08:29:04 51°20.486 2°59.712 6.5 33 16 102040 41
2011-09-20 08:29:10 51°20.493 2°59.743 5.8 29 16 102040 41
2011-09-20 08:29:14 51°20.498 2°59.763 5.5 25 16 102040 41
2011-09-20 08:29:19 51°20.502 2°59.787 5.7 27 16 102040 42
2011-09-20 08:29:25 51°20.508 2°59.818 5.6 20 16 102040 42
2011-09-20 08:29:29 51°20.512 2°59.839 5.3 27 16 102040 41
2011-09-20 08:29:34 51°20.517 2°59.864 6.2 27 16 102040 41
2011-09-20 08:29:39 51°20.522 2°59.889 5.1 27 16 102040 41
2011-09-20 08:29:44 51°20.528 2°59.915 5.1 24 16 102040 41
2011-09-20 08:29:50 51°20.534 2°59.945 4.4 23 16 102040 42
2011-09-20 08:29:54 51°20.539 2°59.965 6 20 16 102040 42
2011-09-20 08:29:59 51°20.542 2°59.991 5.9 28 16 102040 41
2011-09-20 08:30:04 51°20.547 3°0.016 6.5 23 16 102040 41
2011-09-20 08:30:09 51°20.55 3°0.043 6.6 25 16 102040 42
2011-09-20 08:30:14 51°20.555 3°0.069 9.2 23 16 102040 42
2011-09-20 08:30:19 51°20.558 3°0.094 7.5 29 16 102040 41
2011-09-20 08:30:24 51°20.562 3°0.119 7.5 27 16 102040 41
2011-09-20 08:30:30 51°20.566 3°0.15 5.6 20 16 102040 42
2011-09-20 08:30:34 51°20.569 3°0.171 6.2 23 16 102040 42
2011-09-20 08:30:39 51°20.572 3°0.197 6.1 20 16 102030 41
2011-09-20 08:30:44 51°20.575 3°0.222 7.3 23 16 102030 41
2011-09-20 08:30:49 51°20.578 3°0.249 5.6 23 16 102040 42
2011-09-20 08:30:54 51°20.582 3°0.275 5.7 20 16 102040 42
2011-09-20 08:30:59 51°20.586 3°0.301 6.2 19 16 102030 41
2011-09-20 08:31:05 51°20.59 3°0.332 6.4 28 16 102030 41
2011-09-20 08:31:09 51°20.593 3°0.353 6.6 23 16 102040 41
2011-09-20 08:31:14 51°20.597 3°0.379 5.9 20 16 102040 41
2011-09-20 08:31:19 51°20.602 3°0.405 5.6 22 16.1 102040 42
2011-09-20 08:31:24 51°20.606 3°0.431 6.5 26 16.1 102040 42
2011-09-20 08:31:30 51°20.611 3°0.461 5.9 26 16.1 102040 42
2011-09-20 08:31:34 51°20.615 3°0.481 6.7 27 16.1 102040 42
2011-09-20 08:31:39 51°20.619 3°0.507 5 20 16 102040 41
2011-09-20 08:31:44 51°20.623 3°0.532 5.9 25 16 102040 41
2011-09-20 08:31:50 51°20.628 3°0.563 5.9 25 16.1 102030 42
2011-09-20 08:31:54 51°20.631 3°0.583 7.4 24 16.1 102030 42
2011-09-20 08:31:59 51°20.634 3°0.609 8.3 25 16 102040 42
2011-09-20 08:32:04 51°20.638 3°0.634 6.9 25 16 102040 42
2011-09-20 08:32:09 51°20.642 3°0.661 7.2 25 16.1 102040 41